Pagina principale
METAR-TAF:

METAR-TAF

Aeroporti :

Capo Bellavista

Tortolì, Italia

latitudine: 39-56N, longitudine: 009-43E, altezza: 138 m

Osservazione

Il bollettino è stato emesso 1 ora e 47 minuti fa, alle 10:55 UTC
Vento 12 kt da est
Temperature 26°C
Umidità 61%
Pressione 1024 hPa
Visibilità 10 km o più
nessuna nube inferiore a 1500 m e nessun cumulonembo

METAR: LIEB 191055Z 09012KT CAVOK 26/18 Q1024 RMK SKC QUK 1 QUL 0 VIS MAR 30 KM MON LIB VIS MIN 9999

Ora: 14:42 (12:42 UTC)


TAF: mancante

Osservazioni e previsioni meteorologiche di più di 4000 aeroporti (messaggi METAR e TAF).

Le stazioni disponibili sono rappresentate dai dischi gialli e rossi sulla carta.

Puntare il mouse per vedere il nome della stazione.

Clicca sopra per visualizzare le osservazioni e previsioni meteorologiche.

Per cambiare la mappa : fare clic sui pulsanti verdi con una croce nera per ingrandire, il pulsante verde con un trattino per diminuire, o sulla freccia verde per le mappe adiacenti.


METAR-TAF: